Location: Monroe
(41.3286°N, 74.1872°W)
Time: 18:34:57
(UTC+00:00)

ARIANE 6 FM1 Upper Stage - Pass Details

Date: 21 January 2026
Orbit: 522 x 609 km, 62.0° (Epoch: 6 February)

Event Time Altitude Azimuth Distance (km) Brightness Sun altitude
Rises 23:55:12 0° 207° (SSW) 2,720 6.7 -21.7°
Reaches altitude 10° 23:57:27 10° 204° (SSW) 1,815 5.6 -22.1°
Enters shadow 00:00:44 50° 172° (S) 690 3.0 -22.7°
